2000 AC6  

Epoch 1999 Dec. 28.0 TT = JDT 2451540.5                 Nakano

M 166.52746              (2000.0)            P               Q

n   1.25176532     Peri.  187.42251     +0.33482796     +0.93884707

a   0.8526827      Node   102.16555     -0.86024555     +0.33936433

e   0.2868288      Incl.    4.71490     -0.38453587     +0.05829260

P   0.79           H   21.0           G   0.15           U   *

Residuals in seconds of arc 

000104 704  0.1+  0.1+    000105 595  0.0   0.8+    000106 704  0.2-  0.6-  

000104 704  0.5+  0.4+    000105 595  0.9-  0.0     000106 704  0.4+  0.2+  

000104 704  0.0   0.4+    000105 046  0.0   0.9+    000108 402  0.5-  0.6+  

000104 704  0.2+  0.3+    000105 595  0.4+  0.4-    000108 402  0.4+  0.6+  

000104 704  0.1-  1.0+    000105 046  0.3+  0.1+    000110 360  0.0   0.2-  

000105 699 (2.2+  0.6-)   000105 046  0.3+  0.2+    000110 360  0.1-  0.4-  

000105 699  1.2+  0.7-    000105 046  0.2-  0.7+    000110 360  0.6-  0.1+  

000105 704  1.0-  0.3-    000106 595  0.2-  0.3+    000111 587  0.7+  0.2+  

000105 670  1.8+  0.0     000106 595  0.4+  0.5+    000111 587  0.5+  0.1+  

000105 699  1.6+  0.5-    000106 113  0.4+  0.4-    000113 046  0.1-  0.2+  

000105 704  0.6-  0.1-    000106 113  0.5+  0.7-    000113 046  0.2-  0.0   

000105 704  0.6-  0.1+    000106 113  0.5+  0.0     000113 046  0.2-  0.1+  

000105 670  0.1+  0.8-    000106 118  0.0   0.5+    000113 046  0.2-  0.4+  

000105 704  0.1+  0.5-    000106 118  0.3+  0.4+    000114 747  0.3+  0.1-  

000105 704  0.8-  0.2-    000106 118  0.0   0.6+    000114 747  0.2+  0.2+  

000105 670  1.3-  1.5-    000106 651  0.1+  0.6-    000114 747  0.1+  0.2-  

000105 422  0.1-  0.2+    000106 651  0.0   0.4-    000114 747  0.2+  0.1-  

000105 422  0.2-  0.4+    000106 651  0.1+  0.3-    000114 747  0.1+  0.1+  

000105 422  0.3+  0.2-    000106 704  0.0   0.4+    000114 540  0.0   0.1-  

000105 587  1.0-  0.2+    000106 704  0.6-  0.5-    000114 540  0.4+  0.2+  

000105 587  0.3+  0.1-    000106 704  0.3-  0.6-    000114 540  0.0   0.5-  

000105 557  0.3-  0.1-    000106 704  0.2+  0.2-    000114 540  0.4-  0.0   

000105 557  0.5-  0.2+    000106 670 (0.6+  2.3-)   000118 402  0.6-  0.1+  

000105 557  0.1-  0.7+    000106 704  0.0   0.0     000118 402  0.6-  0.2+  

000105 557  0.2+  0.7+    000106 670  1.5-  2.0-    000118 402  1.0+  0.3-  

 

NAKANO

         **** Don't distribute anyone except personal use only ****

                (C) Copyright 2000 OAA/ComputingSection

write mail from CFAD0::NAKANO on 2000-01-19 23:24:18(JST).

 2000 AC6  

Epoch 1999 Dec. 28.0 TT = JDT 2451540.5                 Nakano

M 166.53133              (2000.0)            P               Q

n   1.25189035     Peri.  187.41835     +0.33479840     +0.93885368

a   0.8526259      Node   102.16793     -0.86025509     +0.33935570

e   0.2869797      Incl.    4.71765     -0.38454027     +0.05823639

P   0.79           H   20.9           G   0.15           U   *

 

NAKANO

         **** Don't distribute anyone except personal use only ****

                (C) Copyright 2000 OAA/ComputingSection

write mail from CFAD0::NAKANO on 2000-01-13 00:15:24(JST).





–ß‚è‚Ü‚·B